WP4MXZ San Sebastian PR US current weather conditions

sailwx.info

Wind from 093

Air temperature 22.2° C
Dewpoint 22.2° C

Last reported at 2014-Dec-23 01:33 UTC.
Time now 2014-Dec-23 03:03 UTC

Location: N 18°20' W 067°00'.
View on Google Maps.

See reports from other nearby stations

  
Tides and Currents Weather Stations Pressure Air Temp Water Temp Dewpoint Dewpoint Depression Visibility Wind Speed Wind Dir Waves Ship Positions
date/time (UTC)wind fromknots sea level pressurealtimeterstation pressurevisibilityair tempwater tempwave heightnotes
2014-Dec-23 01:33 093 22.2
2014-Dec-23 01:03 093 22.8
2014-Dec-23 00:33 093 23.3
2014-Dec-23 00:03 093 23.9
2014-Dec-22 23:33 092 23.9
2014-Dec-22 23:03 092 24.4
2014-Dec-22 22:33 092 25.0
2014-Dec-22 22:03 092 26.1
2014-Dec-22 21:33 119 26.7
2014-Dec-22 21:03 163 27.2
2014-Dec-22 20:33 271 27.8
2014-Dec-22 20:03 012 28.3
2014-Dec-22 19:33 019 27.2
2014-Dec-22 19:03 283 28.3
2014-Dec-22 18:33 069 0 gusting 5 27.8
2014-Dec-22 18:03 128 0 gusting 5 28.9
2014-Dec-22 17:33 102 3 gusting 6 29.4
2014-Dec-22 17:03 137 2 gusting 9 30.0
2014-Dec-22 16:33 111 2 gusting 10 29.4
2014-Dec-22 16:03 121 2 gusting 13 28.9
2014-Dec-22 15:33 151 5 gusting 9 28.9
2014-Dec-22 15:03 119 2 gusting 6 28.3
2014-Dec-22 14:33 151 0 gusting 8 27.2
2014-Dec-22 14:03 102 26.1
2014-Dec-22 13:33 112 24.4
2014-Dec-22 13:03 112 22.2
2014-Dec-22 12:33 112 20.6
2014-Dec-22 12:03 184 18.3
2014-Dec-22 11:33 184 17.2
2014-Dec-22 11:03 184 16.7
2014-Dec-22 10:33 184 17.2
2014-Dec-22 10:03 184 17.2
2014-Dec-22 09:33 184 17.2
2014-Dec-22 09:03 184 17.2
2014-Dec-22 08:33 184 17.2
2014-Dec-22 08:03 184 17.2
2014-Dec-22 07:33 184 17.8
2014-Dec-22 07:03 184 17.8
2014-Dec-22 06:33 184 18.3
2014-Dec-22 06:03 184 18.3
2014-Dec-22 05:33 184 18.3
2014-Dec-22 05:03 184 18.3
2014-Dec-22 04:33 184 18.3
2014-Dec-22 04:03 184 18.9
2014-Dec-22 03:33 184 19.4
2014-Dec-22 03:03 184 19.4
2014-Dec-22 02:33 184 20.0
2014-Dec-22 02:03 184 20.6
2014-Dec-22 01:33 184 21.1
2014-Dec-22 01:03 184 22.8
2014-Dec-22 00:33 163 0 gusting 3 23.3
2014-Dec-22 00:03 216 0 gusting 4 23.3
2014-Dec-21 23:33 236 0 gusting 4 23.9
2014-Dec-21 23:03 181 1 gusting 6 24.4
2014-Dec-21 22:33 145 25.0
2014-Dec-21 22:03 114 0 gusting 6 25.6
2014-Dec-21 21:33 123 3 gusting 7 26.7
2014-Dec-21 21:03 118 6 gusting 10 27.2
2014-Dec-21 20:33 149 3 gusting 9 28.3
2014-Dec-21 20:03 150 5 gusting 9 28.3
2014-Dec-21 19:33 149 0 gusting 7 28.9
2014-Dec-21 19:03 179 3 gusting 10 28.9
2014-Dec-21 18:33 128 4 gusting 12 28.9
2014-Dec-21 18:04 167 6 gusting 11 28.9
2014-Dec-21 17:33 182 6 gusting 13 28.9
2014-Dec-21 17:03 098 5 gusting 12 28.9
2014-Dec-21 16:33 145 6 gusting 9 28.9
2014-Dec-21 16:03 126 6 gusting 12 28.3
2014-Dec-21 15:33 126 2 gusting 10 28.3
2014-Dec-21 15:03 127 5 gusting 11 27.8
2014-Dec-21 14:33 169 6 gusting 12 27.2
2014-Dec-21 14:03 179 4 gusting 7 26.7
2014-Dec-21 13:33 197 1 gusting 9 26.1
2014-Dec-21 13:03 207 1 gusting 6 25.6
2014-Dec-21 12:33 218 1 gusting 4 25.0
2014-Dec-21 12:03 211 23.9
2014-Dec-21 11:33 216 22.8
2014-Dec-21 11:03 205 21.7
2014-Dec-21 10:33 223 22.2
2014-Dec-21 10:03 161 21.1
2014-Dec-21 09:33 109 19.4
2014-Dec-21 09:03 172 18.9
2014-Dec-21 08:33 171 18.9
2014-Dec-21 08:03 172 18.9
2014-Dec-21 07:33 172 18.9
2014-Dec-21 07:03 172 19.4
2014-Dec-21 06:33 172 19.4
2014-Dec-21 06:03 192 19.4
2014-Dec-21 05:33 192 20.0
2014-Dec-21 05:03 192 20.0
2014-Dec-21 04:33 191 20.6
2014-Dec-21 04:03 191 21.1
2014-Dec-21 03:33 191 21.1
2014-Dec-21 03:03 192 21.7